[[{"header":{"parameterUnit":"m.s-1","parameterCategory":1,"la1":30.2991,"la2":30.254,"lo1":-89.0895,"lo2":-89.0444,"dy":0.0017,"dx":0.0017,"nx":28,"ny":28,"refTime":"2025-06-19T03:00:00:Z","depth":0,"parameterNumber":2,"parameterNumberName":"U-component_of_WINDS"},"data":[0,0,0,0,0,0,0,0,0,0,0,0,0,0,0,0,0,0,0,0,0,0,0,0,0,0,0,0,0,0,0,0,0,0,0,0,0,0,0,0,0,0,0,0,0,0,0,0,0,0,0,0,0,0,0,0,0,0,0.7601,0.7602,0,0.7709,0.7711,0.7712,0.7756,0.7756,0.7756,0.7756,0.7868,0.7872,0.7875,0,0,0,0,0,0,0,0,0,0,0,0,0,0.7434,0.7436,0.7601,0.7602,0.7604,0.7709,0.7711,0.7712,0.7756,0.7756,0.7756,0.7755,0.7867,0.7871,0.7875,0,0,0,0,0,0,0,0,0,0,0,0,0,0.7521,0.7437,0.7601,0.7638,0.7643,0.7709,0.7711,0.7713,0.7756,0.7756,0.7756,0.7755,0.7866,0.7871,0.7876,0.7913,0,0,0.789,0.7892,0,0,0,0,0,0,0,0,0.7516,0.7527,0.7631,0.7636,0.7641,0.7719,0.7693,0.778,0.7757,0.7713,0.7756,0.7755,0.7819,0.7828,0.7849,0.7918,0.7923,0.7891,0.7894,0.7896,0.7897,0,0,0,0,0,0,0,0.751,0.7522,0.7644,0.7633,0.7639,0.765,0.7662,0.771,0.7767,0.7717,0.7721,0.7733,0.7822,0.7844,0.7852,0.7925,0.7891,0.7895,0.7898,0.79,0.803,0.8031,0,0,0,0,0,0,0.7497,0.7517,0.764,0.7647,0.7576,0.7654,0.7667,0.7694,0.7767,0.7777,0.7733,0.7734,0.7836,0.7846,0.7856,0.7905,0.7896,0.79,0.7903,0.803,0.8031,0.8031,0,0,0,0,0,0,0.7493,0.7508,0.7636,0.7583,0.76,0.7657,0.7687,0.7697,0.7719,0.7779,0.7789,0.7745,0.7836,0.7849,0.7898,0.7909,0.7902,0.7907,0.8029,0.803,0.8031,0.8002,0,0,0,0,0,0,0.7488,0.7506,0.752,0.7583,0.7603,0.7676,0.7688,0.7699,0.7727,0.773,0.7793,0.7803,0.7837,0.7891,0.7903,0.7916,0.7911,0.8028,0.803,0.8031,0.8002,0.8002,0.8001,0,0,0,0,0,0.7482,0.7508,0.7521,0.7535,0.7622,0.7676,0.7688,0.7726,0.7728,0.7743,0.7781,0.7801,0.7906,0.7896,0.791,0.7924,0.8028,0.8029,0.803,0.8002,0.8002,0.8001,0,0,0,0,0,0,0.7445,0.7517,0.7532,0.7579,0.7621,0.7684,0.7704,0.7724,0.7767,0.7768,0.7814,0.7828,0.7873,0.7904,0.7891,0.7964,0.7969,0.7973,0.7942,0.7942,0.7942,0.7934,0.7915,0,0,0,0,0,0.7443,0.748,0.7541,0.7577,0.7597,0.7647,0.7672,0.7697,0.7743,0.7762,0.7804,0.7848,0.7891,0.7918,0.7961,0.8007,0.8022,0.8024,0.8023,0.8023,0.8026,0.8052,0.8054,0.8035,0.8035,0.8035,0,0,0.7437,0.7481,0.7502,0.757,0.7606,0.7645,0.7662,0.7702,0.7731,0.7768,0.7817,0.7849,0.7902,0.7949,0.7972,0.7976,0.8034,0.8024,0.8023,0.8027,0.8054,0.8056,0.8057,0.8036,0.8036,0.8036,0,0,0.7448,0.7485,0.7518,0.7554,0.7608,0.7641,0.7649,0.7709,0.7732,0.7781,0.781,0.7846,0.7919,0.7955,0.7983,0.8008,0.8028,0.8021,0.8018,0.8044,0.8045,0.8047,0.8056,0.8059,0.8024,0.8024,0.8024,0,0.7435,0.7494,0.7533,0.7572,0.7601,0.7636,0.7671,0.7704,0.7769,0.7789,0.7792,0.7885,0.7923,0.798,0.7985,0.8007,0.8018,0.8014,0.8042,0.8044,0.8046,0.8055,0.8058,0.8022,0.8022,0.8023,0.8023,0,0.7475,0.7515,0.7536,0.7598,0.763,0.7666,0.7712,0.774,0.7763,0.7795,0.7846,0.7892,0.7945,0.7961,0.7984,0.8021,0.8022,0.8033,0.8038,0.8046,0.8055,0.8059,0.8021,0.8021,0.8021,0.8022,0,0,0.7465,0.7548,0.7555,0.7584,0.7647,0.7679,0.7717,0.7769,0.7792,0.7836,0.7869,0.7931,0.7941,0.7973,0.8001,0.8023,0.804,0.8032,0.8034,0.8031,0.8084,0.8075,0.8078,0.8053,0.8054,0.8055,0.8079,0,0.7484,0.7553,0.7591,0.7645,0.7683,0.7717,0.7751,0.7793,0.7825,0.7862,0.7898,0.794,0.7951,0.797,0.7994,0.8032,0.8051,0.8031,0.8086,0.8087,0.8071,0.8083,0.8074,0.8095,0.8083,0.8084,0.8084,0,0.7515,0.7558,0.7616,0.7674,0.7692,0.7721,0.7772,0.7807,0.7856,0.7877,0.7913,0.794,0.7982,0.7985,0.8044,0.803,0.8054,0.8077,0.8078,0.8085,0.8086,0.809,0.8103,0.8106,0.8091,0.809,0.809,0,0.7502,0.7575,0.7619,0.7642,0.7712,0.7731,0.7761,0.781,0.7838,0.7883,0.7902,0.7951,0.7977,0.8015,0.8054,0.8052,0.811,0.8115,0.8129,0.8128,0.814,0.8139,0.8157,0.8156,0.8156,0.8155,0.8155,0,0.7519,0.7553,0.7614,0.7641,0.7681,0.7723,0.7761,0.7794,0.7837,0.7871,0.7904,0.7936,0.7986,0.8025,0.8056,0.8101,0.8112,0.8131,0.8139,0.8128,0.8126,0.8145,0.8145,0.8156,0.8156,0.8156,0.8156,0,0.7511,0.7553,0.7603,0.7665,0.7681,0.7708,0.776,0.7788,0.7822,0.7865,0.7878,0.793,0.7977,0.802,0.8083,0.8104,0.8149,0.8159,0.8132,0.8137,0.8148,0.8146,0.8179,0.8186,0.818,0.818,0.818,0,0.7519,0.7546,0.761,0.7636,0.7665,0.7705,0.7735,0.7778,0.7807,0.7865,0.7886,0.7935,0.7977,0.805,0.8094,0.8142,0.8154,0.8162,0.8161,0.8149,0.8154,0.8152,0.8155,0.8161,0.8161,0.8161,0.8161,0,0.7529,0.7548,0.759,0.7638,0.7672,0.7713,0.7754,0.7773,0.7824,0.7856,0.7904,0.7936,0.7999,0.8048,0.8101,0.8132,0.8155,0.816,0.8166,0.8155,0.8139,0.8148,0.813,0.816,0.816,0.816,0.816,0.816,0.753,0.7555,0.7605,0.7649,0.7685,0.7723,0.7753,0.779,0.783,0.7885,0.7908,0.7957,0.8006,0.8079,0.811,0.8149,0.8154,0.8163,0.8165,0.8166,0.8164,0.8132,0.8159,0.8159,0.8159,0.8159,0.816,0,0.7541,0.7575,0.7616,0.7673,0.7708,0.7726,0.7773,0.7801,0.7844,0.7887,0.7927,0.7982,0.803,0.8077,0.8127,0.8149,0.8161,0.8161,0.816,0.8167,0.8157,0.8147,0.8151,0.8151,0.8151,0.8151,0.8151,0.8151,0.7552,0.7596,0.7622,0.7685,0.7718,0.7766,0.7791,0.7827,0.7862,0.7922,0.7961,0.7992,0.8037,0.809,0.8135,0.8148,0.8165,0.8161,0.8177,0.8167,0.8167,0.8168,0.8159,0.8165,0.8165,0.8184,0.8184,0.8184]},{"header":{"parameterUnit":"m.s-1","parameterCategory":1,"la1":30.2991,"la2":30.254,"lo1":-89.0895,"lo2":-89.0444,"dy":0.0017,"dx":0.0017,"nx":28,"ny":28,"refTime":"2025-06-19T03:00:00:Z","depth":0,"parameterNumber":3,"parameterNumberName":"V-component_of_WINDS"},"data":[0,0,0,0,0,0,0,0,0,0,0,0,0,0,0,0,0,0,0,0,0,0,0,0,0,0,0,0,0,0,0,0,0,0,0,0,0,0,0,0,0,0,0,0,0,0,0,0,0,0,0,0,0,0,0,0,0,0,4.8274,4.8274,0,4.8316,4.8317,4.8317,4.8295,4.8293,4.8292,4.8291,4.8329,4.8331,4.8333,0,0,0,0,0,0,0,0,0,0,0,0,0,4.8167,4.8169,4.8274,4.8274,4.8275,4.8316,4.8317,4.8317,4.8295,4.8293,4.8292,4.8291,4.8329,4.8331,4.8334,0,0,0,0,0,0,0,0,0,0,0,0,0,4.8212,4.817,4.8273,4.8269,4.8269,4.8316,4.8317,4.8317,4.8295,4.8293,4.8292,4.829,4.8328,4.8331,4.8334,4.8387,0,0,4.8343,4.8345,0,0,0,0,0,0,0,0,4.8209,4.8215,4.8269,4.8269,4.8269,4.8298,4.8293,4.834,4.8295,4.8285,4.8291,4.8289,4.832,4.8324,4.8335,4.8389,4.839,4.8344,4.8346,4.8347,4.8348,0,0,0,0,0,0,0,4.8206,4.8213,4.829,4.827,4.827,4.8262,4.8267,4.8302,4.8311,4.8286,4.8284,4.829,4.832,4.8332,4.8336,4.8391,4.8344,4.8346,4.8348,4.8349,4.8488,4.849,0,0,0,0,0,0,4.8204,4.8211,4.8289,4.8291,4.8235,4.8266,4.8271,4.8291,4.8311,4.8312,4.8291,4.8289,4.8328,4.8332,4.8337,4.84,4.8347,4.835,4.8352,4.8486,4.8489,4.8491,0,0,0,0,0,0,4.8202,4.8211,4.8287,4.8251,4.826,4.8269,4.8292,4.8292,4.8305,4.8315,4.8316,4.8303,4.8327,4.8333,4.8375,4.8401,4.8351,4.8354,4.8484,4.8487,4.849,4.8526,0,0,0,0,0,0,4.8199,4.8211,4.8232,4.8252,4.8262,4.8326,4.8294,4.8294,4.8311,4.8308,4.8326,4.8327,4.8326,4.837,4.8378,4.8404,4.8356,4.8482,4.8486,4.8489,4.8522,4.8529,4.8535,0,0,0,0,0,4.8195,4.824,4.8233,4.8243,4.829,4.8328,4.8333,4.8332,4.8313,4.8334,4.834,4.8327,4.8397,4.8375,4.8383,4.8411,4.848,4.8485,4.8488,4.8519,4.8528,4.8535,0,0,0,0,0,0,4.8221,4.8242,4.8235,4.8288,4.8306,4.8324,4.835,4.8341,4.8364,4.836,4.8356,4.836,4.8404,4.8411,4.8386,4.8462,4.8435,4.8441,4.8456,4.8464,4.8471,4.8468,4.8359,0,0,0,0,0,4.8233,4.8264,4.828,4.8325,4.8335,4.8341,4.8357,4.8355,4.8373,4.838,4.8389,4.8406,4.8431,4.8448,4.8472,4.8523,4.8526,4.8546,4.8553,4.8558,4.8563,4.8589,4.8598,4.8504,4.8504,4.8504,0,0,4.8258,4.8273,4.8293,4.833,4.8344,4.8374,4.8347,4.8381,4.8402,4.8384,4.8425,4.8432,4.845,4.8497,4.8518,4.8504,4.859,4.8563,4.8568,4.857,4.8595,4.8604,4.8611,4.8507,4.8506,4.8506,0,0,4.8319,4.8334,4.8373,4.8388,4.841,4.8414,4.8423,4.8441,4.8446,4.8487,4.8474,4.8499,4.8543,4.8557,4.8569,4.8634,4.8622,4.8642,4.8676,4.8702,4.8709,4.8716,4.8738,4.8746,4.8647,4.8647,4.8647,0,4.8346,4.8393,4.8393,4.8428,4.8444,4.8431,4.8469,4.8482,4.851,4.8521,4.8506,4.8561,4.8572,4.8621,4.8637,4.8648,4.8657,4.864,4.8709,4.8715,4.8721,4.8742,4.8751,4.8649,4.8649,4.8649,4.8649,0,4.8426,4.8458,4.8486,4.8516,4.8535,4.8571,4.8574,4.8593,4.8589,4.8594,4.8635,4.8648,4.8674,4.8686,4.8681,4.8734,4.8725,4.8709,4.8682,4.8733,4.8752,4.8761,4.8652,4.8652,4.8651,4.865,0,0,4.8504,4.8533,4.8543,4.8556,4.8579,4.8603,4.8638,4.8665,4.8681,4.87,4.8728,4.8766,4.8752,4.8766,4.8763,4.8786,4.8835,4.8767,4.8768,4.8779,4.8893,4.8904,4.8913,4.8828,4.8829,4.883,4.8891,0,4.8565,4.8628,4.8629,4.8686,4.8715,4.8702,4.8732,4.8748,4.8753,4.8777,4.8782,4.8809,4.8789,4.8797,4.8819,4.8825,4.8858,4.882,4.8852,4.8853,4.8847,4.8924,4.8936,4.8992,4.8899,4.89,4.8901,0,4.8646,4.867,4.873,4.8749,4.8761,4.8788,4.8812,4.8836,4.8853,4.8855,4.8872,4.8865,4.8898,4.887,4.8915,4.8889,4.8902,4.8906,4.8908,4.8911,4.888,4.8927,4.901,4.9018,4.8913,4.8912,4.8911,0,4.8696,4.8743,4.8785,4.8796,4.8819,4.8838,4.8848,4.8864,4.888,4.8901,4.8911,4.8935,4.8948,4.8966,4.8965,4.8945,4.901,4.8982,4.9011,4.9011,4.9025,4.9024,4.911,4.9034,4.9034,4.9034,4.9033,0,4.8765,4.8802,4.8808,4.8834,4.8874,4.8874,4.8913,4.8921,4.8935,4.8961,4.8951,4.8974,4.8972,4.8996,4.8995,4.9031,4.9037,4.9038,4.9038,4.9039,4.9039,4.9047,4.9043,4.9036,4.9035,4.9035,4.9034,0,4.8827,4.8833,4.8878,4.8896,4.8902,4.893,4.8945,4.8968,4.8973,4.9005,4.9012,4.9019,4.9046,4.9047,4.9077,4.9077,4.9121,4.9116,4.9116,4.9115,4.9143,4.914,4.9237,4.9249,4.9166,4.9167,4.9167,0,4.887,4.8899,4.8921,4.8938,4.895,4.8977,4.8994,4.8994,4.9012,4.9033,4.9054,4.908,4.9101,4.9145,4.9151,4.9174,4.9169,4.9201,4.9172,4.9173,4.9169,4.9167,4.9169,4.9207,4.9208,4.9209,4.9209,0,4.8946,4.8948,4.8973,4.9,4.9021,4.9041,4.906,4.9074,4.9076,4.9096,4.9125,4.9141,4.9173,4.9199,4.9221,4.9229,4.9219,4.9218,4.9226,4.9228,4.9226,4.9227,4.9131,4.9216,4.9215,4.9215,4.9214,4.9214,4.9,4.9024,4.9044,4.9072,4.9087,4.9105,4.9128,4.9135,4.916,4.9187,4.9185,4.9216,4.9231,4.9261,4.9271,4.9294,4.9282,4.9294,4.9297,4.9299,4.9302,4.9223,4.9298,4.9298,4.9297,4.9297,4.9297,0,4.9074,4.9086,4.9113,4.914,4.9162,4.9153,4.9173,4.9192,4.922,4.9236,4.9258,4.929,4.9314,4.9323,4.9347,4.9363,4.9359,4.937,4.9368,4.937,4.9311,4.9302,4.9372,4.9372,4.9372,4.9372,4.9372,4.9372,4.9116,4.9157,4.916,4.9207,4.9218,4.925,4.9263,4.9278,4.9291,4.9328,4.935,4.9355,4.9368,4.9393,4.9414,4.9416,4.9425,4.9437,4.9437,4.9382,4.9374,4.9367,4.9358,4.9439,4.9439,4.9493,4.9494,4.9494]}]]